Details From LFPN - Toussus-le-Noble
To LFOH - Le Havre-Octeville
Flight Number -
Tags generated
Created
Modified
Stats Distance 92 nm / 171 km
Max Altitude 0 ft / 0 m
Waypoints 3
Social Downloads 0
Likes 0
Share VATSIM

Download

Looking for another format? Having issues loading an existing format? Contact us
Advertisement - Login to hide

Notes

Basic altitude profile: - Ascent Rate: 1300ft/min - Ascent Speed: 250kts - Cruise Altitude: 150ft - Cruise Speed: 150kts - Descent Rate: 1500ft/min - Descent Speed: 250kts Options: - Use NATs: yes - Use PACOTS: yes - Use low airways: yes - Use high airways: yes

Route

LFPN TSU LFOH

ID Type Via Altitude Latitude Longitude Leg Dist Tot Dist Heading (true) Name
O LFPN APT - 0 ft / 0 m 48.75191˚ 2.10607˚ - 0 nm - Toussus-le-Noble
TSU VOR - 0 ft / 0 m 48.75372˚ 2.10236˚ 0 nm 0 nm 307° / 307° TOUSSUS LE NOBLE VOR
O LFOH APT - 0 ft / 0 m 49.53408˚ 0.08846˚ 91 nm 92 nm 301° / 300° Le Havre-Octeville

Altitude Profile

Advertisement - Login to hide

LFPN

Details ICAO LFPN (TNF)
Name Toussus-le-Noble
Region France
Timezone Europe/Paris (UTC+1.0)
Stats Elevation 537 ft / 164 m (AMSL)
Location 48.751909° 2.106072°
Runways 2
Magnetic Variation 0.521° E

METAR

LFPN 181230Z AUTO 01011KT 9999 SCT024 BKN035 07/03 Q1026 NOSIG

Decode

TAF

Not found

Departure Runways

ID Width Length Bearing (true) Bearing (mag) Surface Threshold Offset Overrun Length
07L 98 ft / 30 m 3,670 ft / 1,119 m 71.18° 70.66° Asphalt 0 ft / 0 m 586 ft / 179 m
07R 98 ft / 30 m 3,416 ft / 1,041 m 71.16° 70.64° Asphalt 0 ft / 0 m 0 ft / 0 m
25L 98 ft / 30 m 3,416 ft / 1,041 m 251.17° 250.65° Asphalt 0 ft / 0 m 0 ft / 0 m
25R 98 ft / 30 m 3,670 ft / 1,119 m 251.19° 250.67° Asphalt 0 ft / 0 m 0 ft / 0 m

LFOH

Details ICAO LFOH (LEH)
Name Le Havre-Octeville
Region France
Timezone Europe/Paris (UTC+1.0)
Stats Elevation 311 ft / 95 m (AMSL)
Location 49.534079° 0.088457°
Runways 1
Magnetic Variation 0.177° W

METAR

LFOH 181230Z AUTO 02010KT CAVOK 09/04 Q1029 NOSIG

Decode

TAF

TAF LFOH 181100Z 1812/1912 03004KT 9999 SCT020 BECMG 1900/1903 4000 BR PROB30 1905/1912 0200 FG VV///

Decode

Destination Runways

ID Width Length Bearing (true) Bearing (mag) Surface Threshold Offset Overrun Length
04 131 ft / 40 m 7,553 ft / 2,302 m 43.07° 43.25° Asphalt 0 ft / 0 m 0 ft / 0 m
22 131 ft / 40 m 7,553 ft / 2,302 m 223.08° 223.26° Asphalt 0 ft / 0 m 0 ft / 0 m

Approach Navaids

Runway Type Ident Frequency Range Bearing (true) Bearing (mag) Slope Elevation
22 Localiser OT 109.50 MHz 18 nm / 33 km 223.06° 223.24° - 322 ft / 98 m (AMSL)
22 Glidescope OT 109.50 MHz 10 nm / 19 km 223.07° 223.25° 3.00° 313 ft / 95 m (AMSL)
22 DME OT 109.50 MHz 18 nm / 33 km - - - 354 ft / 108 m (AMSL)

Popular Alternatives